Tracking 17828 objects as of 30-July-2016
HD Live streaming from Space Station
objects crossing your sky now

TEAMSAT

Track TEAMSAT now!
10-day predictions
TEAMSAT is classified as:


NORAD ID: 25025
Int'l Code: 1997-066C
Perigee: 566.5 km
Apogee: 26,604.3 km
Inclination: 7.6 °
Period: 467.6 minutes
Semi major axis: 19956 km
RCS: 0.5073 m2 (medium)
Launch date: October 30, 1997
Source: European Space Agency (ESA)
Launch site: FRENCH GUIANA (FRGUI)
Your satellite tracking list
Your tracking list is empty





NASA's NSSDC Master Catalog

Two Line Element Set (TLE):
1 25025U 97066C   16211.49322383 -.00000173  00000-0 -16572-3 0  9994
2 25025   7.6380 220.2433 6523659  94.9385  12.7478  3.07949016210988
Source of the keplerian elements: AFSPC

N2YO: 873